{"data":{"norad_id":57819,"epoch":"2026-09-20T05:06:23.721984Z","epoch_age_seconds":159430,"freshness":"FRESH","line1":"1 57819U 23138M   26263.21277456  .00000487  00000+0  27216-4 0  9990","line2":"2 57819  43.0009 216.0015 0001406 263.1972  96.8720 15.27577745168427","mean_motion":15.27577745,"eccentricity":0.0001406,"inclination_deg":43.0009,"raan_deg":216.0015,"arg_perigee_deg":263.1972,"mean_anomaly_deg":96.872,"bstar":2.7216e-5,"rev_number":16842,"period_min":94.266887869593,"perigee_km":482.09116461472,"apogee_km":484.02053204367,"semimajor_km":6861.1928483292,"source":"CELESTRAK","updated_at":"2026-09-21T09:00:33.708845Z"}}